TimeCST,TemperatureF,Dew PointF,Humidity,Sea Level PressureIn,VisibilityMPH,Wind Direction,Wind SpeedMPH,Gust SpeedMPH,PrecipitationIn,Events,Conditions,WindDirDegrees,DateUTC
12:53 AM,36.0,28.9,76,30.11,8.0,East,9.2,23.0,N/A,,Overcast,80,2012-11-30 06:53:00
1:53 AM,35.1,28.9,78,30.10,9.0,ENE,9.2,-,N/A,,Mostly Cloudy,70,2012-11-30 07:53:00
2:12 AM,35.6,28.4,75,30.09,9.0,NE,8.1,-,N/A,,Mostly Cloudy,50,2012-11-30 08:12:00
2:53 AM,35.1,28.9,78,30.11,10.0,ENE,6.9,-,N/A,,Overcast,70,2012-11-30 08:53:00
3:53 AM,35.1,28.9,78,30.12,10.0,ENE,6.9,-,N/A,,Overcast,70,2012-11-30 09:53:00
4:53 AM,35.1,30.0,82,30.13,10.0,ENE,9.2,-,N/A,,Overcast,60,2012-11-30 10:53:00
5:53 AM,34.0,30.0,85,30.15,9.0,ENE,9.2,-,0.00,,Overcast,70,2012-11-30 11:53:00
6:53 AM,34.0,28.9,82,30.17,10.0,ENE,6.9,16.1,N/A,,Overcast,60,2012-11-30 12:53:00
7:53 AM,33.1,28.9,85,30.19,9.0,ENE,6.9,-,N/A,,Overcast,60,2012-11-30 13:53:00
8:53 AM,33.1,28.9,85,30.18,8.0,East,11.5,-,N/A,,Overcast,80,2012-11-30 14:53:00
9:01 AM,33.8,28.4,81,30.16,8.0,East,6.9,-,N/A,,Overcast,90,2012-11-30 15:01:00
9:53 AM,33.1,28.9,85,30.20,8.0,East,9.2,-,N/A,,Overcast,100,2012-11-30 15:53:00
10:53 AM,34.0,28.9,82,30.20,7.0,East,6.9,-,N/A,,Overcast,90,2012-11-30 16:53:00
11:53 AM,34.0,30.0,85,30.19,7.0,ENE,5.8,-,N/A,,Overcast,60,2012-11-30 17:53:00
12:53 PM,35.1,30.0,82,30.19,7.0,NE,5.8,-,N/A,,Overcast,50,2012-11-30 18:53:00
1:53 PM,35.1,30.0,82,30.18,7.0,ENE,4.6,-,N/A,,Overcast,60,2012-11-30 19:53:00
2:51 PM,35.6,30.2,81,30.15,7.0,ENE,4.6,-,N/A,,Overcast,60,2012-11-30 20:51:00
2:53 PM,36.0,30.9,82,30.19,7.0,ENE,5.8,-,N/A,,Overcast,60,2012-11-30 20:53:00
3:53 PM,36.0,30.9,82,30.20,7.0,ENE,3.5,-,N/A,,Overcast,70,2012-11-30 21:53:00
4:53 PM,35.1,30.9,85,30.20,8.0,East,4.6,-,N/A,,Overcast,80,2012-11-30 22:53:00
5:53 PM,35.1,30.9,85,30.20,8.0,East,5.8,-,N/A,,Overcast,80,2012-11-30 23:53:00
6:53 PM,35.1,30.9,85,30.19,8.0,SE,4.6,-,N/A,,Overcast,130,2012-12-01 00:53:00
7:09 PM,35.6,30.2,81,30.15,7.0,SE,5.8,-,N/A,,Overcast,130,2012-12-01 01:09:00
7:53 PM,36.0,33.1,89,30.18,6.0,ESE,6.9,-,N/A,,Overcast,120,2012-12-01 01:53:00
9:53 PM,37.0,33.1,86,30.16,5.0,ESE,8.1,-,N/A,,Overcast,110,2012-12-01 03:53:00
10:53 PM,37.0,33.1,86,30.16,5.0,ESE,4.6,-,N/A,,Overcast,110,2012-12-01 04:53:00